Simultaneous Nadir Overpasses (SNOs) Predictions

Prediction of SNOs between FY3D and AQUA Satellite Orbit:

Table of predicted SNOs for the next 14.0 days since TLE Epoch: 5/31/2019
Index Date (FY3D) Time (FY3D) Lat,Lon (FY3D) SZA (FY3D ) Date (AQUA) Time (AQUA) Lat,Lon (AQUA) SZA (AQUA ) Distance(km) Time Diff (sec)
1 06/01/2019 05:40:22 -66.17, 137.47 93.89 06/01/2019 05:41:32 -66.17, 137.47 93.96 0.27 70
2 06/01/2019 06:29:45 70.46, -49.63 81.61 06/01/2019 06:29:40 70.45, -49.69 81.64 2.27 5
3 06/01/2019 07:14:31 -80.65,-153.99 118.52 06/01/2019 07:13:18 -81.23,-152.70 118.24 68.56 73
4 06/03/2019 21:56:56 -65.80,-107.03 93.82 06/03/2019 21:58:07 -65.81,-107.00 93.90 1.47 71
5 06/03/2019 22:46:17 70.20, 65.85 81.57 06/03/2019 22:46:13 70.20, 65.83 81.59 1.13 4
6 06/03/2019 23:31:56 -81.33, -59.61 115.65 06/03/2019 23:30:43 -81.84, -59.87 115.39 56.72 73
7 06/06/2019 14:13:07 -66.69, 9.81 94.99 06/06/2019 14:14:20 -66.69, 9.76 95.05 2.16 73
8 06/06/2019 15:02:48 70.00,-178.57 81.53 06/06/2019 15:02:45 70.00,-178.57 81.54 0.21 3
9 06/06/2019 15:49:18 -80.81, 35.54 112.87 06/06/2019 15:48:04 -81.20, 34.72 112.70 45.18 74
10 06/09/2019 06:29:40 -66.38, 125.35 94.88 06/09/2019 06:30:54 -66.38, 125.32 94.94 1.39 74
11 06/09/2019 07:19:18 69.85, -62.91 81.48 06/09/2019 07:19:16 69.86, -62.90 81.48 0.54 2
12 06/09/2019 08:06:36 -79.46, 135.69 110.25 06/09/2019 08:05:22 -79.71, 134.74 110.11 34.33 74
13 06/11/2019 22:46:54 -63.76,-121.36 92.34 06/11/2019 22:48:08 -63.73,-121.24 92.42 6.63 74
14 06/11/2019 23:35:47 69.70, 52.75 81.48 06/11/2019 23:35:46 69.71, 52.78 81.47 1.07 1
15 06/12/2019 00:23:50 -77.65,-119.46 107.75 06/12/2019 00:22:36 -77.81,-120.18 107.63 24.02 74
16 06/14/2019 15:04:09 -61.11, -7.65 89.74 06/14/2019 15:05:23 -61.05, -7.42 89.85 13.98 74
17 06/14/2019 15:52:15 69.66, 168.57 81.41 06/14/2019 15:52:15 69.66, 168.60 81.40 1.40 0




NCC Satellite Simultaneous Nadir Overpasses (SNOs) Prediction Service
